Location: Franzen
(48.6167°N, 15.3833°E)
Time: 02:51:00
(UTC+00:00)

Transit 2A - Pass Details

Date: 03 August 2021
Orbit: 594 x 964 km, 66.7° (Epoch: 27 September)

Event Time Altitude Azimuth Distance (km) Brightness Sun altitude
Rises 12:46:28 0° 325° (NW) 3,205 9.1 52.5°
Reaches altitude 10° 12:48:46 10° 328° (NNW) 2,333 8.5 52.3°
Maximum altitude 12:54:09 70° 52° (NE) 889 6.9 51.6°
Drops below altitude 10° 13:00:06 10° 137° (SE) 2,563 8.8 50.9°
Sets 13:02:43 0° 139° (SE) 3,544 9.5 50.6°
